Overview Statistics Trail Chart Weather Telemetry Raw packets
 

This is the latest recevied weather packets stored in our database for station/object KG5APU. If no packets are shown the sender has not sent any weather packets the latest 10 day(s).

<< 49 50 51 52 53 54 55 >>
Time Temp. Humidity Pressure Rain* Wind** Luminosity Snow
1787876843 34.44° C 41% 1013.9 hPa 0 mm - 19 W/m² -
1787876244 34.44° C 42% 1014 hPa 0 mm - 23 W/m² -
1787875639 35° C 41% 1013.5 hPa 0 mm - 28 W/m² -
1787875036 35.56° C 40% 1013.7 hPa 0 mm - 42 W/m² -
1787874435 35.56° C 39% 1013.6 hPa 0 mm - 94 W/m² -
1787873831 36.11° C 39% 1013.6 hPa 0 mm - 120 W/m² -
1787873232 36.11° C 40% 1013.5 hPa 0 mm - 144 W/m² -
1787872632 36.67° C 40% 1013.8 hPa 0 mm - 173 W/m² -
1787872027 36.67° C 39% 1013.6 hPa 0 mm - 210 W/m² -
1787871423 37.22° C 40% 1014 hPa 0 mm - 237 W/m² -
1787870818 37.22° C 38% 1014 hPa 0 mm - 264 W/m² -
1787870215 37.78° C 36% 1013.9 hPa 0 mm - 295 W/m² -
1787869614 37.22° C 38% 1013.9 hPa 0 mm - 327 W/m² -
1787869014 37.22° C 38% 1013.9 hPa 0 mm - 360 W/m² -
1787868411 37.22° C 39% 1013.9 hPa 0 mm - 394 W/m² -
1787867808 37.22° C 39% 1014.2 hPa 0 mm - 438 W/m² -
1787867203 37.22° C 39% 1014.2 hPa 0 mm - 470 W/m² -
1787866600 37.22° C 41% 1014.5 hPa 0 mm - 509 W/m² -
1787865999 37.22° C 40% 1014.5 hPa 0 mm - 492 W/m² -
1787865394 37.22° C 41% 1014.7 hPa 0 mm - 474 W/m² -
1787864791 37.22° C 40% 1014.8 hPa 0 mm - 496 W/m² -
1787864191 37.22° C 41% 1014.8 hPa 0 mm - 422 W/m² -
1787863590 37.22° C 43% 1014.9 hPa 0 mm - 710 W/m² -
1787862987 36.67° C 44% 1014.8 hPa 0 mm - 477 W/m² -
1787862382 37.22° C 43% 1014.8 hPa 0 mm - 649 W/m² -

* Rain latest hour (hover to see other rain measurements)
** Current wind speed in m/s (hover to see current wind gust speed)